Time,TemperatureF,DewpointF,PressureIn,WindDirection,WindDirectionDegrees,WindSpeedMPH,WindSpeedGustMPH,Humidity,HourlyPrecipIn,Conditions,Clouds,dailyrainin,SoftwareType,DateUTC
2013-03-14 00:00:00,27.0,20.5,30.45,NW,326,0.0,0.0,76,0.00,,SKC,0.00,VWS V12.07,2013-03-14 05:00:00,
2013-03-14 00:06:00,26.7,20.2,30.45,NW,325,0.0,0.0,76,0.00,,SKC,0.00,VWS V12.07,2013-03-14 05:06:00,
2013-03-14 00:14:00,26.3,20.4,30.44,ENE,64,0.0,0.0,78,0.00,,SKC,0.00,VWS V12.07,2013-03-14 05:14:00,
2013-03-14 00:20:00,26.3,20.1,30.44,ENE,65,0.0,0.0,77,0.00,,SKC,0.00,VWS V12.07,2013-03-14 05:20:00,
2013-03-14 00:26:00,26.3,19.8,30.44,ENE,65,0.0,0.0,76,0.00,,SKC,0.00,VWS V12.07,2013-03-14 05:26:00,
2013-03-14 00:31:00,26.3,20.1,30.44,ENE,65,0.0,0.0,77,0.00,,SKC,0.00,VWS V12.07,2013-03-14 05:31:00,
2013-03-14 00:36:00,26.6,20.7,30.44,ESE,119,1.0,1.0,78,0.00,,SKC,0.00,VWS V12.07,2013-03-14 05:36:00,
2013-03-14 00:44:00,27.2,20.6,30.44,ESE,117,0.0,2.0,76,0.00,,SKC,0.00,VWS V12.07,2013-03-14 05:44:00,
2013-03-14 00:50:00,27.1,20.2,30.44,ESE,117,0.0,2.0,75,0.00,,SKC,0.00,VWS V12.07,2013-03-14 05:50:00,
2013-03-14 00:56:00,27.0,20.1,30.44,ESE,119,0.0,2.0,75,0.00,,SKC,0.00,VWS V12.07,2013-03-14 05:56:00,
2013-03-14 01:01:00,27.1,20.2,30.44,ESE,117,0.0,0.0,75,0.00,,SKC,0.00,VWS V12.07,2013-03-14 06:01:00,
2013-03-14 01:06:00,27.1,20.2,30.44,ESE,117,0.0,0.0,75,0.00,,SKC,0.00,VWS V12.07,2013-03-14 06:06:00,
2013-03-14 01:14:00,27.0,20.5,30.44,ESE,120,0.0,0.0,76,0.00,,SKC,0.00,VWS V12.07,2013-03-14 06:14:00,
2013-03-14 01:19:00,26.9,20.7,30.44,ESE,120,0.0,0.0,77,0.00,,SKC,0.00,VWS V12.07,2013-03-14 06:19:00,
2013-03-14 01:26:00,26.8,20.6,30.44,ESE,120,0.0,0.0,77,0.00,,SKC,0.00,VWS V12.07,2013-03-14 06:26:00,
2013-03-14 01:34:00,26.7,20.8,30.44,ESE,121,1.0,2.0,78,0.00,,SKC,0.00,VWS V12.07,2013-03-14 06:34:00,
2013-03-14 01:40:00,26.6,20.7,30.44,SE,127,1.0,2.0,78,0.00,,SKC,0.00,VWS V12.07,2013-03-14 06:40:00,
2013-03-14 01:46:00,26.8,20.9,30.43,SE,134,1.0,3.0,78,0.00,,SKC,0.00,VWS V12.07,2013-03-14 06:46:00,
2013-03-14 01:51:00,26.9,21.0,30.43,SE,140,2.0,3.0,78,0.00,,SKC,0.00,VWS V12.07,2013-03-14 06:51:00,
2013-03-14 01:56:00,27.0,21.1,30.43,SE,143,2.0,3.0,78,0.00,,SKC,0.00,VWS V12.07,2013-03-14 06:56:00,
2013-03-14 02:01:00,27.1,21.2,30.43,SE,131,2.0,2.0,78,0.00,,SKC,0.00,VWS V12.07,2013-03-14 07:01:00,
2013-03-14 02:07:00,27.3,21.4,30.43,SE,134,2.0,3.0,78,0.00,,SKC,0.00,VWS V12.07,2013-03-14 07:07:00,
2013-03-14 02:14:00,27.2,21.9,30.43,SE,129,1.0,3.0,80,0.00,,SKC,0.00,VWS V12.07,2013-03-14 07:14:00,
2013-03-14 02:20:00,27.2,21.9,30.43,SE,124,2.0,3.0,80,0.00,,SKC,0.00,VWS V12.07,2013-03-14 07:20:00,
2013-03-14 02:26:00,27.3,22.0,30.43,ESE,118,1.0,3.0,80,0.00,,SKC,0.00,VWS V12.07,2013-03-14 07:26:00,
2013-03-14 02:34:00,27.4,22.0,30.43,ESE,122,3.0,3.0,80,0.00,,SKC,0.00,VWS V12.07,2013-03-14 07:34:00,
2013-03-14 02:40:00,27.4,22.4,30.42,SE,132,2.0,3.0,81,0.00,,SKC,0.00,VWS V12.07,2013-03-14 07:40:00,
2013-03-14 02:46:00,27.4,22.4,30.42,SE,139,0.0,3.0,81,0.00,,SKC,0.00,VWS V12.07,2013-03-14 07:46:00,
2013-03-14 02:51:00,27.4,22.4,30.42,SE,134,0.0,3.0,81,0.00,,SKC,0.00,VWS V12.07,2013-03-14 07:51:00,
2013-03-14 02:57:00,27.4,22.4,30.42,SE,145,0.0,3.0,81,0.00,,SKC,0.00,VWS V12.07,2013-03-14 07:57:00,
2013-03-14 03:04:00,27.4,22.4,30.42,ESE,113,0.0,0.0,81,0.00,,SKC,0.00,VWS V12.07,2013-03-14 08:04:00,
2013-03-14 03:10:00,27.5,22.5,30.41,SSE,155,0.0,0.0,81,0.00,,SKC,0.00,VWS V12.07,2013-03-14 08:10:00,
2013-03-14 03:16:00,27.6,22.8,30.41,SE,146,2.0,3.0,82,0.00,,SKC,0.00,VWS V12.07,2013-03-14 08:16:00,
2013-03-14 03:21:00,27.8,22.7,30.40,ESE,122,3.0,3.0,81,0.00,,SKC,0.00,VWS V12.07,2013-03-14 08:21:00,
2013-03-14 03:26:00,27.9,22.8,30.40,SE,134,3.0,4.0,81,0.00,,SKC,0.00,VWS V12.07,2013-03-14 08:26:00,
2013-03-14 03:34:00,28.1,23.0,30.39,SSE,148,2.0,4.0,81,0.00,,SKC,0.00,VWS V12.07,2013-03-14 08:34:00,
2013-03-14 03:40:00,28.1,23.0,30.39,SE,140,2.0,4.0,81,0.00,,SKC,0.00,VWS V12.07,2013-03-14 08:40:00,
2013-03-14 03:46:00,28.1,23.0,30.39,SE,140,1.0,4.0,81,0.00,,SKC,0.00,VWS V12.07,2013-03-14 08:46:00,
2013-03-14 03:51:00,28.0,22.9,30.39,SE,144,1.0,4.0,81,0.00,,SKC,0.00,VWS V12.07,2013-03-14 08:51:00,
2013-03-14 03:56:00,28.1,23.0,30.39,SE,146,1.0,4.0,81,0.00,,SKC,0.00,VWS V12.07,2013-03-14 08:56:00,
2013-03-14 04:01:00,28.1,22.7,30.39,SE,145,2.0,3.0,80,0.00,,SKC,0.00,VWS V12.07,2013-03-14 09:01:00,
2013-03-14 04:06:00,28.2,22.8,30.39,SE,146,1.0,3.0,80,0.00,,SKC,0.00,VWS V12.07,2013-03-14 09:06:00,
2013-03-14 04:14:00,28.3,22.9,30.39,SE,145,1.0,3.0,80,0.00,,SKC,0.00,VWS V12.07,2013-03-14 09:14:00,
2013-03-14 04:20:00,28.4,23.0,30.39,SE,142,2.0,3.0,80,0.00,,SKC,0.00,VWS V12.07,2013-03-14 09:20:00,
2013-03-14 04:26:00,28.4,23.0,30.38,SSE,153,1.0,3.0,80,0.00,,SKC,0.00,VWS V12.07,2013-03-14 09:26:00,
2013-03-14 04:31:00,28.4,23.0,30.38,SE,140,1.0,1.0,80,0.00,,SKC,0.00,VWS V12.07,2013-03-14 09:31:00,
2013-03-14 04:37:00,28.2,22.8,30.38,SE,138,0.0,1.0,80,0.00,,SKC,0.00,VWS V12.07,2013-03-14 09:37:00,
2013-03-14 04:44:00,28.1,22.7,30.38,SE,134,0.0,1.0,80,0.00,,SKC,0.00,VWS V12.07,2013-03-14 09:44:00,
2013-03-14 04:50:00,27.8,22.4,30.38,SE,135,0.0,1.0,80,0.00,,SKC,0.00,VWS V12.07,2013-03-14 09:50:00,
2013-03-14 04:56:00,27.6,22.5,30.38,SE,136,0.0,1.0,81,0.00,,SKC,0.00,VWS V12.07,2013-03-14 09:56:00,
2013-03-14 05:01:00,27.5,22.5,30.38,SE,138,0.0,0.0,81,0.00,,SKC,0.00,VWS V12.07,2013-03-14 10:01:00,
2013-03-14 05:06:00,27.3,22.5,30.38,SE,138,0.0,0.0,82,0.00,,SKC,0.00,VWS V12.07,2013-03-14 10:06:00,
2013-03-14 05:14:00,27.2,22.1,30.38,SSE,150,0.0,0.0,81,0.00,,SKC,0.00,VWS V12.07,2013-03-14 10:14:00,
2013-03-14 05:20:00,27.2,22.1,30.38,SSE,150,1.0,2.0,81,0.00,,SKC,0.00,VWS V12.07,2013-03-14 10:20:00,
2013-03-14 05:26:00,27.4,22.4,30.37,SSE,147,0.0,2.0,81,0.00,,SKC,0.00,VWS V12.07,2013-03-14 10:26:00,
2013-03-14 05:31:00,27.7,22.4,30.37,SSE,155,2.0,2.0,80,0.00,,SKC,0.00,VWS V12.07,2013-03-14 10:31:00,
2013-03-14 05:37:00,28.0,22.3,30.37,SSE,153,1.0,2.0,79,0.00,,SKC,0.00,VWS V12.07,2013-03-14 10:37:00,
2013-03-14 05:44:00,28.1,22.4,30.36,SE,143,0.0,2.0,79,0.00,,SKC,0.00,VWS V12.07,2013-03-14 10:44:00,
2013-03-14 05:50:00,28.0,22.0,30.37,SSW,200,1.0,3.0,78,0.00,,SKC,0.00,VWS V12.07,2013-03-14 10:50:00,
2013-03-14 05:56:00,28.1,22.1,30.37,SSE,153,0.0,3.0,78,0.00,,SKC,0.00,VWS V12.07,2013-03-14 10:56:00,
2013-03-14 06:01:00,28.2,21.9,30.37,SSE,160,0.0,0.0,77,0.00,,SKC,0.00,VWS V12.07,2013-03-14 11:01:00,
2013-03-14 06:07:00,28.2,21.9,30.37,SE,141,0.0,0.0,77,0.00,,SKC,0.00,VWS V12.07,2013-03-14 11:07:00,
2013-03-14 06:14:00,28.1,22.1,30.37,SE,145,0.0,0.0,78,0.00,,SKC,0.00,VWS V12.07,2013-03-14 11:14:00,
2013-03-14 06:20:00,27.9,21.9,30.37,SSE,158,0.0,0.0,78,0.00,,SKC,0.00,VWS V12.07,2013-03-14 11:20:00,
2013-03-14 06:26:00,28.1,22.1,30.37,ESE,121,0.0,0.0,78,0.00,,SKC,0.00,VWS V12.07,2013-03-14 11:26:00,
2013-03-14 06:31:00,28.1,22.1,30.37,East,97,2.0,2.0,78,0.00,,SKC,0.00,VWS V12.07,2013-03-14 11:31:00,
2013-03-14 06:36:00,28.3,22.3,30.38,SE,130,2.0,3.0,78,0.00,,SKC,0.00,VWS V12.07,2013-03-14 11:36:00,
2013-03-14 06:41:00,28.3,22.3,30.37,SE,142,1.0,3.0,78,0.00,,SKC,0.00,VWS V12.07,2013-03-14 11:41:00,
2013-03-14 06:47:00,28.5,22.5,30.37,SE,136,1.0,3.0,78,0.00,,SKC,0.00,VWS V12.07,2013-03-14 11:47:00,
2013-03-14 06:54:00,28.7,22.4,30.37,SSE,156,2.0,3.0,77,0.00,,SKC,0.00,VWS V12.07,2013-03-14 11:54:00,
2013-03-14 07:00:00,29.0,22.7,30.37,SSE,159,1.0,3.0,77,0.00,,SKC,0.00,VWS V12.07,2013-03-14 12:00:00,
2013-03-14 07:06:00,29.2,22.9,30.37,SE,135,3.0,4.0,77,0.00,,SKC,0.00,VWS V12.07,2013-03-14 12:06:00,
2013-03-14 07:11:00,29.3,23.0,30.36,SE,131,2.0,4.0,77,0.00,,SKC,0.00,VWS V12.07,2013-03-14 12:11:00,
2013-03-14 07:17:00,29.4,23.1,30.35,SE,135,2.0,5.0,77,0.00,,SKC,0.00,VWS V12.07,2013-03-14 12:17:00,
2013-03-14 07:24:00,29.5,23.2,30.36,SSE,154,3.0,5.0,77,0.00,,SKC,0.00,VWS V12.07,2013-03-14 12:24:00,
2013-03-14 07:30:00,29.7,23.1,30.36,SE,143,2.0,5.0,76,0.00,,SKC,0.00,VWS V12.07,2013-03-14 12:30:00,
2013-03-14 07:38:00,29.9,23.3,30.35,South,183,2.0,3.0,76,0.00,,SKC,0.00,VWS V12.07,2013-03-14 12:38:00,
2013-03-14 07:46:00,30.1,23.5,30.35,SE,137,1.0,3.0,76,0.00,,SKC,0.00,VWS V12.07,2013-03-14 12:46:00,
2013-03-14 07:54:00,30.6,24.0,30.34,SE,135,3.0,5.0,76,0.00,,SKC,0.00,VWS V12.07,2013-03-14 12:54:00,
2013-03-14 08:00:00,30.9,23.9,30.34,South,172,2.0,5.0,75,0.00,,SKC,0.00,VWS V12.07,2013-03-14 13:00:00,
2013-03-14 08:06:00,31.2,24.2,30.34,SE,134,2.0,5.0,75,0.00,,SKC,0.00,VWS V12.07,2013-03-14 13:06:00,
2013-03-14 08:11:00,31.4,24.1,30.34,SE,145,2.0,5.0,74,0.00,,SKC,0.00,VWS V12.07,2013-03-14 13:11:00,
2013-03-14 08:17:00,31.5,24.2,30.34,SSW,197,3.0,5.0,74,0.00,,SKC,0.00,VWS V12.07,2013-03-14 13:17:00,
2013-03-14 08:24:00,31.6,24.3,30.34,SE,131,2.0,5.0,74,0.00,,SKC,0.00,VWS V12.07,2013-03-14 13:24:00,
2013-03-14 08:30:00,31.9,24.6,30.34,SE,136,3.0,5.0,74,0.00,,SKC,0.00,VWS V12.07,2013-03-14 13:30:00,
2013-03-14 08:36:00,32.1,24.8,30.34,SE,142,3.0,5.0,74,0.00,,SKC,0.00,VWS V12.07,2013-03-14 13:36:00,
2013-03-14 08:41:00,32.2,24.9,30.33,SE,135,4.0,5.0,74,0.00,,SKC,0.00,VWS V12.07,2013-03-14 13:41:00,
2013-03-14 08:48:00,32.4,24.7,30.33,SSE,159,6.0,6.0,73,0.00,,SKC,0.00,VWS V12.07,2013-03-14 13:48:00,
2013-03-14 08:53:00,32.4,24.7,30.33,ESE,123,4.0,7.0,73,0.00,,SKC,0.00,VWS V12.07,2013-03-14 13:53:00,
2013-03-14 09:00:00,32.5,24.5,30.32,SSE,168,3.0,3.0,72,0.00,,SKC,0.00,VWS V12.07,2013-03-14 14:00:00,
2013-03-14 09:08:00,32.7,24.7,30.32,SE,145,2.0,8.0,72,0.00,,SKC,0.00,VWS V12.07,2013-03-14 14:08:00,
2013-03-14 09:13:00,32.8,24.8,30.32,ESE,119,2.0,8.0,72,0.00,,SKC,0.00,VWS V12.07,2013-03-14 14:13:00,
2013-03-14 09:20:00,33.1,25.1,30.32,South,190,3.0,8.0,72,0.00,,SKC,0.00,VWS V12.07,2013-03-14 14:20:00,
2013-03-14 09:26:00,33.5,25.1,30.32,SSE,159,3.0,8.0,71,0.00,,SKC,0.00,VWS V12.07,2013-03-14 14:26:00,
2013-03-14 09:34:00,34.2,25.8,30.32,SSE,159,3.0,6.0,71,0.00,,SKC,0.00,VWS V12.07,2013-03-14 14:34:00,
2013-03-14 09:40:00,34.9,26.1,30.32,SW,221,2.0,6.0,70,0.00,,SKC,0.00,VWS V12.07,2013-03-14 14:40:00,
2013-03-14 09:46:00,35.4,25.9,30.31,SE,135,2.0,6.0,68,0.00,,SKC,0.00,VWS V12.07,2013-03-14 14:46:00,
2013-03-14 09:51:00,35.7,26.2,30.31,South,169,5.0,8.0,68,0.00,,SKC,0.00,VWS V12.07,2013-03-14 14:51:00,
2013-03-14 09:57:00,36.2,26.3,30.31,SE,137,6.0,9.0,67,0.00,,SKC,0.00,VWS V12.07,2013-03-14 14:57:00,
2013-03-14 10:04:00,36.7,25.7,30.30,SSE,162,4.0,8.0,64,0.00,,SKC,0.00,VWS V12.07,2013-03-14 15:04:00,
2013-03-14 10:09:00,37.1,26.1,30.30,SSE,150,5.0,8.0,64,0.00,,SKC,0.00,VWS V12.07,2013-03-14 15:09:00,
2013-03-14 10:16:00,37.7,25.9,30.29,SE,143,1.0,8.0,62,0.00,,SKC,0.00,VWS V12.07,2013-03-14 15:16:00,
2013-03-14 10:24:00,38.5,26.6,30.28,SE,136,6.0,9.0,62,0.00,,SKC,0.00,VWS V12.07,2013-03-14 15:24:00,
2013-03-14 10:30:00,39.2,26.5,30.28,WSW,242,9.0,9.0,60,0.00,,SKC,0.00,VWS V12.07,2013-03-14 15:30:00,
2013-03-14 10:38:00,40.0,26.8,30.28,SSW,209,7.0,12.0,59,0.00,,SKC,0.00,VWS V12.07,2013-03-14 15:38:00,
2013-03-14 10:43:00,40.3,27.1,30.28,SSE,163,3.0,12.0,59,0.00,,SKC,0.00,VWS V12.07,2013-03-14 15:43:00,
2013-03-14 10:50:00,40.8,27.2,30.27,SSE,162,2.0,12.0,58,0.00,,SKC,0.00,VWS V12.07,2013-03-14 15:50:00,
2013-03-14 10:56:00,41.0,27.0,30.26,South,173,3.0,12.0,57,0.00,,SKC,0.00,VWS V12.07,2013-03-14 15:56:00,
2013-03-14 11:05:00,41.2,27.1,30.26,SSW,200,6.0,9.0,57,0.00,,SKC,0.00,VWS V12.07,2013-03-14 16:05:00,
2013-03-14 11:14:00,42.0,27.9,30.25,SE,137,2.0,10.0,57,0.00,,SKC,0.00,VWS V12.07,2013-03-14 16:14:00,
2013-03-14 11:20:00,42.0,28.7,30.24,SW,222,6.0,16.0,59,0.00,,SKC,0.00,VWS V12.07,2013-03-14 16:20:00,
2013-03-14 11:26:00,42.0,28.7,30.26,South,181,1.0,16.0,59,0.00,,SKC,0.00,VWS V12.07,2013-03-14 16:26:00,
2013-03-14 11:34:00,42.5,28.8,30.25,SW,228,2.0,6.0,58,0.00,,SKC,0.00,VWS V12.07,2013-03-14 16:34:00,
2013-03-14 11:44:00,42.0,27.9,30.23,South,184,2.0,9.0,57,0.00,,SKC,0.00,VWS V12.07,2013-03-14 16:44:00,
2013-03-14 11:49:00,42.1,28.8,30.23,SSW,208,8.0,10.0,59,0.00,,SKC,0.00,VWS V12.07,2013-03-14 16:49:00,
2013-03-14 11:56:00,42.5,29.6,30.23,SSW,200,4.0,10.0,60,0.00,,SKC,0.00,VWS V12.07,2013-03-14 16:56:00,
2013-03-14 12:04:00,43.6,29.8,30.22,South,188,3.0,5.0,58,0.00,,SKC,0.00,VWS V12.07,2013-03-14 17:04:00,
2013-03-14 12:11:00,44.0,28.9,30.22,South,184,4.0,11.0,55,0.00,,SKC,0.00,VWS V12.07,2013-03-14 17:11:00,
2013-03-14 12:16:00,44.2,30.0,30.22,South,191,0.0,11.0,57,0.00,,SKC,0.00,VWS V12.07,2013-03-14 17:16:00,
2013-03-14 12:24:00,45.6,29.9,30.23,South,180,1.0,11.0,54,0.00,,SKC,0.00,VWS V12.07,2013-03-14 17:24:00,
2013-03-14 12:30:00,45.4,29.7,30.23,SSE,155,3.0,4.0,54,0.00,,SKC,0.00,VWS V12.07,2013-03-14 17:30:00,
2013-03-14 12:38:00,47.1,31.8,30.23,NNE,16,2.0,9.0,55,0.00,,SKC,0.00,VWS V12.07,2013-03-14 17:38:00,
2013-03-14 12:43:00,47.1,29.9,30.23,SSE,165,1.0,10.0,51,0.00,,SKC,0.00,VWS V12.07,2013-03-14 17:43:00,
2013-03-14 12:51:00,47.3,31.0,30.22,ESE,117,4.0,12.0,53,0.00,,SKC,0.00,VWS V12.07,2013-03-14 17:51:00,
2013-03-14 12:58:00,48.0,31.7,30.21,SW,219,4.0,12.0,53,0.00,,SKC,0.00,VWS V12.07,2013-03-14 17:58:00,
2013-03-14 13:03:00,48.5,31.2,30.20,SSW,199,2.0,8.0,51,0.00,,SKC,0.00,VWS V12.07,2013-03-14 18:03:00,
2013-03-14 13:10:00,48.7,32.8,30.20,West,273,4.0,9.0,54,0.00,,SKC,0.00,VWS V12.07,2013-03-14 18:10:00,
2013-03-14 13:16:00,49.4,32.0,30.19,SSW,193,7.0,12.0,51,0.00,,SKC,0.00,VWS V12.07,2013-03-14 18:16:00,
2013-03-14 13:24:00,49.7,31.3,30.19,SSE,159,3.0,13.0,49,0.00,,SKC,0.00,VWS V12.07,2013-03-14 18:24:00,
2013-03-14 13:30:00,50.6,33.2,30.18,South,181,5.0,5.0,51,0.00,,SKC,0.00,VWS V12.07,2013-03-14 18:30:00,
2013-03-14 13:38:00,50.8,31.8,30.17,SE,145,3.0,13.0,48,0.00,,SKC,0.00,VWS V12.07,2013-03-14 18:38:00,
2013-03-14 13:46:00,50.8,32.3,30.16,SW,222,3.0,15.0,49,0.00,,SKC,0.00,VWS V12.07,2013-03-14 18:46:00,
2013-03-14 13:51:00,50.9,31.9,30.16,SSW,208,8.0,15.0,48,0.00,,SKC,0.00,VWS V12.07,2013-03-14 18:51:00,
2013-03-14 13:57:00,50.8,32.3,30.16,West,262,5.0,15.0,49,0.00,,SKC,0.00,VWS V12.07,2013-03-14 18:57:00,
2013-03-14 14:04:00,51.1,32.6,30.16,SE,141,1.0,11.0,49,0.00,,SKC,0.00,VWS V12.07,2013-03-14 19:04:00,
2013-03-14 14:10:00,51.5,34.0,30.16,SW,221,2.0,14.0,51,0.00,,SKC,0.00,VWS V12.07,2013-03-14 19:10:00,
2013-03-14 14:16:00,52.0,33.5,30.16,SSW,203,6.0,14.0,49,0.00,,SKC,0.00,VWS V12.07,2013-03-14 19:16:00,
2013-03-14 14:21:00,52.2,33.6,30.16,WSW,248,7.0,14.0,49,0.00,,SKC,0.00,VWS V12.07,2013-03-14 19:21:00,
2013-03-14 14:27:00,52.6,34.5,30.16,SSE,163,1.0,14.0,50,0.00,,SKC,0.00,VWS V12.07,2013-03-14 19:27:00,
2013-03-14 14:34:00,52.8,34.7,30.15,WSW,252,10.0,10.0,50,0.00,,SKC,0.00,VWS V12.07,2013-03-14 19:34:00,
2013-03-14 14:40:00,53.3,35.7,30.15,SW,228,4.0,11.0,51,0.00,,SKC,0.00,VWS V12.07,2013-03-14 19:40:00,
2013-03-14 14:48:00,53.5,35.3,30.14,SSE,153,3.0,14.0,50,0.00,,SKC,0.00,VWS V12.07,2013-03-14 19:48:00,
2013-03-14 14:53:00,53.7,36.0,30.14,SW,224,7.0,14.0,51,0.00,,SKC,0.00,VWS V12.07,2013-03-14 19:53:00,
2013-03-14 15:00:00,54.3,35.6,30.13,SSW,199,6.0,9.0,49,0.00,,SKC,0.00,VWS V12.07,2013-03-14 20:00:00,
2013-03-14 15:06:00,54.9,36.6,30.13,West,264,5.0,11.0,50,0.00,,SKC,0.00,VWS V12.07,2013-03-14 20:06:00,
2013-03-14 15:11:00,55.4,37.6,30.13,NW,305,3.0,11.0,51,0.00,,SKC,0.00,VWS V12.07,2013-03-14 20:11:00,
2013-03-14 15:18:00,56.2,37.8,30.13,South,187,6.0,11.0,50,0.00,,SKC,0.00,VWS V12.07,2013-03-14 20:18:00,
2013-03-14 15:23:00,56.5,37.6,30.13,SSW,210,1.0,11.0,49,0.00,,SKC,0.00,VWS V12.07,2013-03-14 20:23:00,
2013-03-14 15:31:00,57.1,38.1,30.12,SSE,150,5.0,10.0,49,0.00,,SKC,0.00,VWS V12.07,2013-03-14 20:31:00,
2013-03-14 15:36:00,57.5,38.0,30.12,SW,215,1.0,10.0,48,0.00,,SKC,0.00,VWS V12.07,2013-03-14 20:36:00,
2013-03-14 15:44:00,58.3,38.7,30.12,SW,226,7.0,10.0,48,0.00,,SKC,0.00,VWS V12.07,2013-03-14 20:44:00,
2013-03-14 15:53:00,59.1,39.5,30.12,SW,235,2.0,10.0,48,0.00,,SKC,0.00,VWS V12.07,2013-03-14 20:53:00,
2013-03-14 16:00:00,59.4,38.6,30.11,West,259,3.0,11.0,46,0.00,,SKC,0.00,VWS V12.07,2013-03-14 21:00:00,
2013-03-14 16:08:00,59.3,38.5,30.11,WNW,301,2.0,9.0,46,0.00,,SKC,0.00,VWS V12.07,2013-03-14 21:08:00,
2013-03-14 16:17:00,60.0,38.0,30.11,NW,305,1.0,9.0,44,0.00,,SKC,0.00,VWS V12.07,2013-03-14 21:17:00,
2013-03-14 16:23:00,60.3,38.9,30.11,WNW,290,6.0,10.0,45,0.00,,SKC,0.00,VWS V12.07,2013-03-14 21:23:00,
2013-03-14 16:30:00,60.1,39.3,30.11,West,281,3.0,7.0,46,0.00,,SKC,0.00,VWS V12.07,2013-03-14 21:30:00,
2013-03-14 16:39:00,59.8,39.0,30.11,WSW,245,0.0,10.0,46,0.00,,SKC,0.00,VWS V12.07,2013-03-14 21:39:00,
2013-03-14 16:47:00,60.3,40.0,30.11,West,271,3.0,10.0,47,0.00,,SKC,0.00,VWS V12.07,2013-03-14 21:47:00,
2013-03-14 16:54:00,59.8,39.0,30.11,West,267,2.0,10.0,46,0.00,,SKC,0.00,VWS V12.07,2013-03-14 21:54:00,
2013-03-14 17:00:00,59.5,38.7,30.11,West,272,5.0,10.0,46,0.00,,SKC,0.00,VWS V12.07,2013-03-14 22:00:00,
2013-03-14 17:06:00,59.3,39.1,30.11,WNW,290,2.0,7.0,47,0.00,,SKC,0.00,VWS V12.07,2013-03-14 22:06:00,
2013-03-14 17:14:00,59.4,39.2,30.12,NW,322,5.0,9.0,47,0.00,,SKC,0.00,VWS V12.07,2013-03-14 22:14:00,
2013-03-14 17:19:00,59.4,39.2,30.12,NNW,330,4.0,9.0,47,0.00,,SKC,0.00,VWS V12.07,2013-03-14 22:19:00,
2013-03-14 17:26:00,59.6,38.8,30.12,WNW,293,3.0,9.0,46,0.00,,SKC,0.00,VWS V12.07,2013-03-14 22:26:00,
2013-03-14 17:34:00,59.9,39.6,30.11,WNW,287,3.0,3.0,47,0.00,,SKC,0.00,VWS V12.07,2013-03-14 22:34:00,
2013-03-14 17:43:00,59.8,39.0,30.11,North,352,2.0,6.0,46,0.00,,SKC,0.00,VWS V12.07,2013-03-14 22:43:00,
2013-03-14 17:50:00,59.6,39.9,30.11,ENE,67,1.0,6.0,48,0.00,,SKC,0.00,VWS V12.07,2013-03-14 22:50:00,
2013-03-14 17:58:00,59.5,40.3,30.11,North,351,0.0,6.0,49,0.00,,SKC,0.00,VWS V12.07,2013-03-14 22:58:00,
2013-03-14 18:04:00,59.4,40.8,30.12,NNE,12,0.0,2.0,50,0.00,,SKC,0.00,VWS V12.07,2013-03-14 23:04:00,
2013-03-14 18:09:00,59.3,40.2,30.12,NW,319,0.0,2.0,49,0.00,,SKC,0.00,VWS V12.07,2013-03-14 23:09:00,
2013-03-14 18:16:00,59.1,41.0,30.12,North,9,2.0,3.0,51,0.00,,SKC,0.00,VWS V12.07,2013-03-14 23:16:00,
2013-03-14 18:24:00,58.7,41.1,30.12,NNW,345,0.0,5.0,52,0.00,,SKC,0.00,VWS V12.07,2013-03-14 23:24:00,
2013-03-14 18:33:00,58.3,40.8,30.12,NNE,33,0.0,1.0,52,0.00,,SKC,0.00,VWS V12.07,2013-03-14 23:33:00,
2013-03-14 18:40:00,58.2,41.2,30.12,NNW,330,0.0,1.0,53,0.00,,SKC,0.00,VWS V12.07,2013-03-14 23:40:00,
2013-03-14 18:48:00,57.7,40.7,30.12,NNE,19,0.0,1.0,53,0.00,,SKC,0.00,VWS V12.07,2013-03-14 23:48:00,
2013-03-14 18:54:00,57.2,40.7,30.12,North,11,0.0,1.0,54,0.00,,SKC,0.00,VWS V12.07,2013-03-14 23:54:00,
2013-03-14 19:01:00,56.4,40.5,30.12,NNE,26,0.0,0.0,55,0.00,,SKC,0.00,VWS V12.07,2013-03-15 00:01:00,
2013-03-14 19:08:00,55.5,40.5,30.13,NNE,18,0.0,3.0,57,0.00,,SKC,0.00,VWS V12.07,2013-03-15 00:08:00,
2013-03-14 19:16:00,54.6,40.1,30.13,NNE,17,1.0,3.0,58,0.00,,SKC,0.00,VWS V12.07,2013-03-15 00:16:00,
2013-03-14 19:24:00,54.1,40.1,30.13,NNE,27,2.0,3.0,59,0.00,,SKC,0.00,VWS V12.07,2013-03-15 00:24:00,
2013-03-14 19:33:00,53.0,39.9,30.13,NNE,13,0.0,0.0,61,0.00,,SKC,0.00,VWS V12.07,2013-03-15 00:33:00,
2013-03-14 19:41:00,52.4,40.2,30.13,NE,56,0.0,3.0,63,0.00,,SKC,0.00,VWS V12.07,2013-03-15 00:41:00,
2013-03-14 19:49:00,51.9,39.7,30.13,NE,53,0.0,3.0,63,0.00,,SKC,0.00,VWS V12.07,2013-03-15 00:49:00,
2013-03-14 19:54:00,51.7,39.5,30.13,NE,53,0.0,3.0,63,0.00,,SKC,0.00,VWS V12.07,2013-03-15 00:54:00,
2013-03-14 20:00:00,51.3,39.2,30.13,ENE,62,0.0,3.0,63,0.00,,SKC,0.00,VWS V12.07,2013-03-15 01:00:00,
2013-03-14 20:06:00,51.2,39.0,30.13,ESE,103,0.0,2.0,63,0.00,,SKC,0.00,VWS V12.07,2013-03-15 01:06:00,
2013-03-14 20:14:00,51.0,38.9,30.14,ENE,70,0.0,2.0,63,0.00,,SKC,0.00,VWS V12.07,2013-03-15 01:14:00,
2013-03-14 20:20:00,50.8,38.7,30.14,ENE,70,0.0,2.0,63,0.00,,SKC,0.00,VWS V12.07,2013-03-15 01:20:00,
2013-03-14 20:27:00,50.7,39.0,30.13,ENE,73,0.0,2.0,64,0.00,,SKC,0.00,VWS V12.07,2013-03-15 01:27:00,
2013-03-14 20:34:00,50.7,39.0,30.14,ENE,78,0.0,0.0,64,0.00,,SKC,0.00,VWS V12.07,2013-03-15 01:34:00,
2013-03-14 20:40:00,50.6,39.3,30.14,ENE,61,1.0,2.0,65,0.00,,SKC,0.00,VWS V12.07,2013-03-15 01:40:00,
2013-03-14 20:46:00,50.3,39.0,30.14,ESE,120,2.0,4.0,65,0.00,,SKC,0.00,VWS V12.07,2013-03-15 01:46:00,
2013-03-14 20:54:00,49.9,39.0,30.14,ESE,119,2.0,4.0,66,0.00,,SKC,0.00,VWS V12.07,2013-03-15 01:54:00,
2013-03-14 21:00:00,49.1,38.6,30.13,SE,134,2.0,4.0,67,0.00,,SKC,0.00,VWS V12.07,2013-03-15 02:00:00,
2013-03-14 21:06:00,48.6,37.8,30.13,SE,131,2.0,5.0,66,0.00,,SKC,0.00,VWS V12.07,2013-03-15 02:06:00,
2013-03-14 21:14:00,48.1,36.1,30.13,SE,132,3.0,5.0,63,0.00,,SKC,0.00,VWS V12.07,2013-03-15 02:14:00,
2013-03-14 21:20:00,47.8,35.4,30.13,SE,134,3.0,5.0,62,0.00,,SKC,0.00,VWS V12.07,2013-03-15 02:20:00,
2013-03-14 21:27:00,47.5,35.1,30.13,ESE,120,4.0,5.0,62,0.00,,SKC,0.00,VWS V12.07,2013-03-15 02:27:00,
2013-03-14 21:37:00,46.8,34.5,30.13,SE,125,4.0,5.0,62,0.00,,SKC,0.00,VWS V12.07,2013-03-15 02:37:00,
2013-03-14 21:44:00,46.6,34.3,30.13,SE,139,4.0,5.0,62,0.00,,SKC,0.00,VWS V12.07,2013-03-15 02:44:00,
2013-03-14 21:50:00,46.3,34.0,30.13,ESE,120,4.0,5.0,62,0.00,,SKC,0.00,VWS V12.07,2013-03-15 02:50:00,
2013-03-14 21:56:00,46.1,33.8,30.13,SE,134,3.0,5.0,62,0.00,,SKC,0.00,VWS V12.07,2013-03-15 02:56:00,
2013-03-14 22:01:00,45.9,33.6,30.13,SE,131,4.0,4.0,62,0.00,,SKC,0.00,VWS V12.07,2013-03-15 03:01:00,
2013-03-14 22:07:00,45.7,33.4,30.13,SE,140,2.0,5.0,62,0.00,,SKC,0.00,VWS V12.07,2013-03-15 03:07:00,
2013-03-14 22:14:00,45.5,33.7,30.13,SSE,148,3.0,5.0,63,0.00,,SKC,0.00,VWS V12.07,2013-03-15 03:14:00,
2013-03-14 22:20:00,45.4,33.2,30.14,SE,129,3.0,6.0,62,0.00,,SKC,0.00,VWS V12.07,2013-03-15 03:20:00,
2013-03-14 22:26:00,45.3,33.5,30.14,SE,134,3.0,6.0,63,0.00,,SKC,0.00,VWS V12.07,2013-03-15 03:26:00,
2013-03-14 22:34:00,45.2,33.4,30.14,SE,141,3.0,4.0,63,0.00,,SKC,0.00,VWS V12.07,2013-03-15 03:34:00,
2013-03-14 22:43:00,45.1,33.3,30.14,SE,131,4.0,5.0,63,0.00,,SKC,0.00,VWS V12.07,2013-03-15 03:43:00,
2013-03-14 22:50:00,44.9,33.1,30.14,SE,137,3.0,6.0,63,0.00,,SKC,0.00,VWS V12.07,2013-03-15 03:50:00,
2013-03-14 22:56:00,44.7,32.9,30.13,SE,140,2.0,6.0,63,0.00,,SKC,0.00,VWS V12.07,2013-03-15 03:56:00,
2013-03-14 23:00:00,44.7,32.9,30.14,SE,144,2.0,6.0,63,0.00,,SKC,0.00,VWS V12.07,2013-03-15 04:00:00,
2013-03-14 23:04:00,44.6,32.8,30.14,SE,138,2.0,4.0,63,0.00,,SKC,0.00,VWS V12.07,2013-03-15 04:04:00,
2013-03-14 23:07:00,44.5,33.1,30.14,SE,136,2.0,4.0,64,0.00,,SKC,0.00,VWS V12.07,2013-03-15 04:07:00,
2013-03-14 23:10:00,44.4,33.0,30.14,SE,141,2.0,4.0,64,0.00,,SKC,0.00,VWS V12.07,2013-03-15 04:10:00,
2013-03-14 23:16:00,44.2,32.8,30.14,SE,129,4.0,5.0,64,0.00,,SKC,0.00,VWS V12.07,2013-03-15 04:16:00,
2013-03-14 23:21:00,44.1,32.7,30.14,SE,137,3.0,5.0,64,0.00,,SKC,0.00,VWS V12.07,2013-03-15 04:21:00,
2013-03-14 23:27:00,44.1,32.7,30.14,SE,140,3.0,6.0,64,0.00,,SKC,0.00,VWS V12.07,2013-03-15 04:27:00,
2013-03-14 23:34:00,44.0,33.0,30.14,SE,146,3.0,5.0,65,0.00,,SKC,0.00,VWS V12.07,2013-03-15 04:34:00,
2013-03-14 23:40:00,43.8,32.8,30.14,SE,135,3.0,5.0,65,0.00,,SKC,0.00,VWS V12.07,2013-03-15 04:40:00,
2013-03-14 23:49:00,43.7,32.7,30.14,SSE,148,2.0,5.0,65,0.00,,SKC,0.00,VWS V12.07,2013-03-15 04:49:00,
2013-03-14 23:56:00,43.3,32.7,30.13,SSE,153,3.0,5.0,66,0.00,,SKC,0.00,VWS V12.07,2013-03-15 04:56:00,